Home > Weather > Marengo > Past weeks

Flag for USA Past Weather in Marengo, Indiana, USA — Yesterday and Last 2 Weeks

Now
87 °F

Passing clouds.


Feels Like: 95 °F
Forecast: 72 / 89 °F
Wind: 5 mph from Northeast

Location: Bowling Green-Warren County Regional Airport

Current Time: Aug 29, 2016 at 2:01:45 PM

Latest Report: Aug 29, 2016 at 12:53 PM


Visibility: 10 mi

Pressure: 30.16 "Hg

Humidity: 63%

Dew Point: 73 °F

Location of MarengoLocation

Past Weather in Marengo — Graph

°F

Marengo Temperature Yesterday

Maximum temperature yesterday: 94 °F (at 2:53 PM)
Minimum temperature yesterday: 71 °F (at 5:53 AM)
Average temperature yesterday: 81 °F

High & Low Weather Summary for the Past Weeks

 TemperatureHumidityPressure
High94 °F (Aug 26, 3:53 PM)97% (Aug 16, 11:53 PM)30.27 "Hg (Aug 16, 11:53 PM)
Low59 °F (Aug 23, 6:53 AM)41% (Aug 22, 4:53 PM)29.76 "Hg (Aug 20, 5:53 PM)
Average78 °F78%30.07 "Hg
* Reported Aug 14 12:53 PM — Aug 29 12:53 PM, Marengo, Weather by CustomWeather, © 2016

Note: Actual official high and low records may vary slightly from our data, if they occured in-between our weather recording intervals... More about our weather records

Advertising

Marengo Weather History for the Previous 24 Hours

Scroll right to see more
 ConditionsComfort  
Time TempWeatherWind HumidityBarometerVisibility
12:53 PM
Mon, Aug 29
87 °FPassing clouds.5 mph63%30.16 "Hg10 mi
11:53 AM85 °FSunny.3 mph68%30.17 "Hg10 mi
10:53 AM81 °FSunny.No wind72%30.18 "Hg10 mi
9:53 AM78 °FSunny.7 mph79%30.18 "Hg10 mi
8:53 AM74 °FPartly sunny.5 mph85%30.17 "Hg10 mi
7:53 AM72 °FPassing clouds.5 mph87%30.14 "Hg10 mi
6:53 AM71 °FClear.3 mph90%30.12 "Hg10 mi
5:53 AM70 °FClear.No wind93%30.11 "Hg9 mi
4:53 AM71 °FClear.No wind93%30.11 "Hg10 mi
3:53 AM70 °FClear.No wind93%30.11 "Hg10 mi
2:53 AM73 °FClear.No wind88%30.12 "Hg10 mi
1:53 AM72 °FClear.5 mph91%30.14 "Hg10 mi
12:53 AM73 °FClear.3 mph88%30.14 "Hg10 mi
11:53 PM
Sun, Aug 28
73 °FClear.No wind90%30.11 "Hg10 mi
10:53 PM75 °FClear.3 mph85%30.12 "Hg10 mi
9:53 PM75 °FClear.6 mph85%30.14 "Hg10 mi
8:53 PM80 °FPassing clouds.15 mph74%30.13 "Hg10 mi
7:53 PM80 °FSunny.3 mph81%30.08 "Hg10 mi
6:53 PM83 °FThundershowers. Mostly cloudy.9 mph59%30.07 "Hg4 mi
5:53 PM93 °FScattered clouds.6 mph50%30.06 "Hg10 mi
4:53 PM92 °FSunny.No wind49%30.07 "Hg10 mi
3:53 PM92 °FPassing clouds.No wind51%30.09 "Hg10 mi
2:53 PM94 °FPassing clouds.3 mph48%30.12 "Hg10 mi
Weather by CustomWeather, © 2016

See weather overviewHow to use our weather pages